Regional Weather Roundup
Issued by NWS

Home | Current Version | Previous Version | Text Only | Print | Product List | Glossary Off
Versions: 1 2 3 4 5 6 7 8 9 10 11 12 13 14 15 16 17 18 19 20 21 22 23 24 25 26 27 28 29 30 31 32 33 34 35 36 37 38 39 40 41 42 43 44 45 46 47 48 49 50

000
ASUS43 KMPX 181210
RWRMN
WEATHER ROUNDUP FOR MINNESOTA
NATIONAL WEATHER SERVICE TWIN CITIES/CHANHASSEN MN
700 AM CDT SAT APR 18 2015


NOTE: "FAIR" INDICATES FEW OR NO CLOUDS BELOW 12,000 FEET WITH NO
SIGNIFICANT WEATHER AND/OR OBSTRUCTIONS TO VISIBILITY. N/A MEANS
CURRENT SKY AND/OR WEATHER CONDITIONS ARE NOT AVAILABLE.

MNZ060>063-068>070-181300-
   Twin Cities Metro

CITY           SKY/WX    TMP DP  RH WIND       PRES   REMARKS
TWIN CITIES    MOCLDY    53  29  39 E9        30.09R
6HR MIN TEMP:  47; 6HR MAX TEMP:  58;

ST PAUL        PTCLDY    51  29  42 VRB3      30.10S
CRYSTAL        PTCLDY    47  30  51 NE5       30.09R
BLAINE         PTCLDY    45  32  61 NE3       30.10R
LAKEVILLE      PTCLDY    45  34  65 CALM      30.08R
EDEN PRAIRIE   PTCLDY    53  30  41 E9        30.08R
6HR MIN TEMP:  46; 6HR MAX TEMP:  56;

SOUTH ST PAUL  PTCLDY    52  29  41 CALM      30.10R
LAKE ELMO      FAIR      50  32  50 NE12      30.10F
$$
MNZ001>005-007-008-013>017-022>024-027-028-181300-
   Northwest Minnesota

CITY           SKY/WX    TMP DP  RH WIND       PRES   REMARKS
BEMIDJI        CLEAR     34  30  85 E6        30.16S WCI  29
HALLOCK        CLEAR     36  28  75 E9        30.16S
ROSEAU         CLEAR     36  28  75 E9        30.19S
WARROAD        CLEAR     32  28  86 E6        30.21F WCI  26
THIEF RVR FALL CLEAR     36  28  75 E12       30.16S
CROOKSTON      CLEAR     36  28  75 E8        30.14F
FOSSTON        CLEAR     34  27  75 E8        30.14F WCI  27
DETROIT LAKES  CLEAR     43  30  61 E5        30.12S
MOORHEAD       PTCLDY    30  19  64 CALM      30.11R
PARK RAPIDS    CLEAR     43  30  60 E5        30.13S
MAHNOMEN       FAIR      39  30  71 E8        30.11F
$$
MNZ006-009>011-018-025>026-181300-
   North Central Minnesota

CITY           SKY/WX    TMP DP  RH WIND       PRES   REMARKS
BAUDETTE       CLEAR     33  29  85 E7        30.21F WCI  27
FLAG ISLAND    CLEAR     34  30  86 E5        30.21F WCI  30
INTL FALLS     CLEAR     28  25  88 CALM      30.23R
6HR MIN TEMP:  25; 6HR MAX TEMP:  39;

WASKISH        CLEAR     32  30  93 CALM      30.20S
BIG FORK       CLEAR     34  30  86 E5        30.21R WCI  30
LONGVILLE      CLEAR     37  30  75 NE6       30.15S
GRAND RAPIDS   CLEAR     37  27  65 E6        30.17S
ORR            CLEAR     30  27  86 CALM      30.20R
COOK           CLEAR     28  27  93 CALM      30.22R
WALKER         FAIR      40  31  71 E9G16     30.15S
$$
MNZ012-019>021-037-181300-
   Northeast Minnesota

CITY           SKY/WX    TMP DP  RH WIND       PRES   REMARKS
DULUTH         CLEAR     39  29  67 E15G22    30.18R
6HR MIN TEMP:  39; 6HR MAX TEMP:  52;

ELY            CLEAR     32  30  93 NE3       30.22S
HIBBING        FAIR      33  28  81 NE6       30.20R WCI  28
EVELETH        CLEAR     34  30  86 NE7       30.22R WCI  28
DULUTH HARBOR  CLEAR     39  36  87 NE20      30.22R
TWO HARBORS    CLEAR     41  32  70 NE9       30.20R
SILVER BAY     CLEAR     37  30  75 N5        30.21R
GRAND MARAIS     N/A     35  31  85 CALM      30.25R
G MARAIS ARPRT CLEAR     30  27  86 NE5       30.22R WCI  25
$$
MNZ029>031-032-039>041-046>048-054>057-064-181300-
   West Central Minnesota

CITY           SKY/WX    TMP DP  RH WIND       PRES   REMARKS
FERGUS FALLS   PTCLDY    46  25  42 E9        30.10S
WHEATON        PTCLDY    34  25  69 CALM      30.09S
MORRIS         PTCLDY    46  27  46 E13       30.06S
ALEXANDRIA     CLEAR     44  27  51 E12       30.10S
ELBOW LAKE     FAIR      46  28  50 E14       30.07F
WADENA         CLEAR     39  27  60 NE7       30.12R
GLENWOOD       CLEAR     43  27  52 NE10      30.09F
APPLETON       CLEAR     45  28  53 E9        30.06S
BENSON         CLEAR     46  25  42 E9        30.06F
ORTONVILLE     PTCLDY    43  27  52 E5        30.05F
MADISON        PTCLDY    41  25  52 CALM      30.05S
WILLMAR        FAIR      48  30  49 E12       30.08S
$$
MNZ033>034-036-042>043-049>051-058-059-181300-
   Central Minnesota

CITY           SKY/WX    TMP DP  RH WIND       PRES   REMARKS
ST CLOUD       CLEAR     46  28  49 E9        30.10S
6HR MIN TEMP:  42; 6HR MAX TEMP:  53;

SAUK CENTRE    FAIR      45  28  49 E9        30.10S
PAYNESVILLE    CLEAR     41  27  57 CALM      30.09S
AITKIN         CLEAR     39  30  70 E6        30.15R
PINE RIVER     CLEAR     37  28  70 CALM      30.18R
BRAINERD       FAIR      40  30  67 NE7       30.14R
STAPLES        CLEAR     41  28  60 NE3       30.12S
LONG PRAIRIE   FAIR      41  28  60 NE7       30.11S
LITTLE FALLS   CLEAR     43  28  56 CALM      30.12R
LITCHFIELD     PTCLDY    46  28  49 E7        30.09R
BUFFALO        PTCLDY    48  29  48 NE8       30.10R
MAPLE LAKE     PTCLDY    47  31  54 NE7       30.10S
$$
MNZ037-044-045-052-053-181300-
   East Central Minnesota

CITY           SKY/WX    TMP DP  RH WIND       PRES   REMARKS
PRINCETON      CLEAR     46  30  53 NE8       30.12S
MORA           CLEAR     41  30  65 E6        30.15R
CAMBRIDGE      CLEAR     48  32  53 NE6       30.11S
RUSH CITY      PTCLDY    44  32  61 NE7       30.14R
MOOSE LAKE     CLEAR     39  32  75 CALM      30.16R
HINCKLEY       FAIR      43  32  65 NE7       30.15S
CLOQUET        CLEAR     37  30  75 E14       30.18R
MCGREGOR       CLEAR     37  32  81 E6        30.16R
$$
MNZ071>073-080-081-089-090-097-098-181300-
   Southwest Minnesota

CITY           SKY/WX    TMP DP  RH WIND       PRES   REMARKS
MONTEVIDEO     PTCLDY    39  27  60 E9        30.06F
GRANITE FALLS  PTCLDY    44  29  55 NE6       30.06F
CANBY          CLOUDY    43  32  64 N3        30.06S
MARSHALL       MOCLDY    45  25  45 CALM      30.05R
REDWOOD FALLS  PTCLDY    48  28  46 NE8       30.05S
OLIVIA         CLEAR     43  27  52 NE8       30.05S
PIPESTONE      MOCLDY    54  19  26 E9        30.02R
WINDOM         PTCLDY    52  25  35 NE9       30.03F
WORTHINGTON    MOCLDY    50  27  40 NE7       30.03S
JACKSON        MOCLDY    54  28  37 E8        30.03S
TRACY          MOCLDY    49  25  38 CALM      30.04S
SLAYTON        PTCLDY    50  23  34 CALM      30.04S
$$
MNZ065>067-074>077-082>085-091>093-181300-
   South Central Minnesota

CITY           SKY/WX    TMP DP  RH WIND       PRES   REMARKS
MANKATO        MOCLDY    54  32  43 N6        30.05S
NEW ULM        PTCLDY    52  25  35 NE6       30.05S
ST JAMES       PTCLDY    46  30  53 N5        30.05F
FAIRMONT       PTCLDY    46  30  53 NE3       30.02S
GLENCOE        MOCLDY    46  33  60 CALM      30.07R
FARIBAULT      MOCLDY    46  32  57 NE3       30.07R
OWATONNA       MOCLDY    43  36  75 NE5       30.06S
ALBERT LEA     PTCLDY    48  36  61 CALM      30.04S
$$
MNZ078>079-086>088-094>096-181300-
   Southeast Minnesota

CITY           SKY/WX    TMP DP  RH WIND       PRES   REMARKS
ROCHESTER      MOCLDY    50  34  54 NE9       30.08R
6HR MIN TEMP:  45; 6HR MAX TEMP:  59;

RED WING       PTCLDY    52  28  40 SE6       30.09R
STANTON        PTCLDY    48  32  53 E9        30.07R
DODGE CENTER   MOCLDY    50  34  53 NE7       30.07R
WINONA         PTCLDY    45  43  93 CALM      30.09R
AUSTIN         PTCLDY    48  36  61 CALM      30.05R
PRESTON        MOCLDY    49  37  61 NE3       30.07R
$$
ABBREVIATIONS USED IN REMARKS
   TC - TEMPERATURES IN CELSIUS
  WCI - WIND CHILL INDEX
   HX - HEAT INDEX
  VSB - VISIBILITY
$$


USA.gov is the U.S. government's official web portal to all federal, state and local government web resources and services.